カタログに戻る

STARLINK-32153

運用中通信VLEO
NORAD 60330·PAYLOAD·🇺🇸 United States

打ち上げ Aug 2, 2024 から Cape Canaveral Space Force Station

Loading…

次のパス (今後24時間)

TLE

最新Source: CelesTrak SupGP

元期: Sep 15, 2026, 03:03 UTC

1 60330C 24136B   26258.12756944 -.00010903  00000+0 -32207-3 0  2588
2 60330  53.1577 274.5050 0001281  90.4113 352.1107 15.34402352    14

AllMySatでSTARLINK-32153をリアルタイム追跡

Download on the App Store